Temp
11 11 11 11 13 15 15 19 20 21 22 22 23 24 24 24 24 24 29 30 29 28 27 27 27 28 28 30 30 31 33 33 33 32 33 33 32 31 31 30 31 30 30 31 28
11 11 11 11 14 16 15 19 20 20 22 23 23 24 24 24 24 29 30 29 29 28 29 29 30 29 31 31 30 32 33 33 32 33 33 33 32 31 31 31 30 29 29 29 27
11 11 11 11 14 16 16 18 20 21 22 23 23 23 24 24 29 33 29 29 28 27 30 30 30 30 32 33 32 32 30 32 32 33 34 33 30 32 31 31 31 30 29 29 27
10 11 10 11 14 16 15 18 20 22 23 23 22 24 24 22 33 31 28 28 28 28 29 30 31 31 32 32 33 32 31 32 32 33 33 32 31 31 31 30 31 31 30 29 29
10 10 10 12 15 15 16 18 20 22 23 23 23 24 23 31 33 27 28 28 27 28 30 32 32 32 33 33 33 32 32 32 32 33 33 32 31 30 29 29 30 30 29 29 30
10 11 13 13 16 15 16 19 20 21 23 23 24 24 26 33 28 28 29 28 30 31 31 31 32 33 32 32 32 32 31 32 33 33 32 32 31 31 29 29 29 29 29 30 30
12 13 16 18 18 18 17 19 21 23 23 23 23 22 30 32 29 29 30 30 30 31 32 29 31 33 32 32 32 30 30 32 32 33 32 33 31 30 29 29 29 29 30 30 30
13 15 17 20 21 20 20 21 22 23 23 23 23 22 33 27 28 29 29 30 30 30 29 29 31 33 33 32 32 31 31 30 32 32 32 31 31 29 29 29 30 30 30 29 30
15 17 20 20 21 21 21 21 23 23 23 23 23 27 33 27 29 30 30 32 31 30 30 29 31 33 32 33 31 32 33 32 32 32 32 32 31 30 30 30 30 30 30 30 29
18 18 21 21 21 21 22 22 22 23 23 21 23 30 30 32 30 29 29 31 32 32 33 32 33 34 34 34 32 33 34 33 32 32 32 32 32 31 30 31 31 30 31 30 30
21 21 22 22 22 22 20 20 26 27 27 33 33 32 32 30 29 30 30 31 32 32 34 34 34 34 35 35 34 34 33 33 33 32 32 32 32 31 31 31 31 31 31 31 31
22 22 23 23 23 22 21 29 30 29 32 30 31 31 31 32 32 32 30 32 32 33 34 33 35 35 35 34 34 33 33 33 32 32 32 32 32 32 31 32 32 31 32 32 33
20 23 23 23 23 21 24 28 26 27 32 31 32 33 33 32 34 33 32 33 33 34 35 34 35 35 35 35 35 35 34 34 33 32 32 32 32 32 32 32 32 32 33 33 33
20 20 22 22 22 25 28 26 26 26 34 32 32 33 32 34 34 34 32 34 34 34 35 35 36 35 36 36 35 35 34 34 32 33 34 34 34 32 33 32 32 32 33 33 33
21 21 21 22 22 27 27 25 26 28 32 33 33 32 34 34 34 32 32 33 33 35 35 34 36 35 35 34 35 33 34 34 33 34 33 34 34 33 34 33 32 33 34 34 34
22 22 21 19 18 25 24 25 27 32 31 33 33 33 33 35 35 32 33 34 35 34 35 34 37 35 36 35 34 33 34 34 34 35 35 35 35 35 33 34 35 34 34 34 35
23 22 20 19 29 23 24 29 33 34 34 34 34 34 35 34 35 34 33 33 34 33 35 36 37 37 35 35 34 34 35 36 35 35 35 35 34 37 37 36 36 35 35 35 35
23 21 20 21 21 22 26 34 33 34 34 34 34 35 34 35 35 35 35 34 35 35 35 35 35 36 36 36 36 35 35 35 33 34 36 33 35 36 37 37 35 37 36 36 35
22 20 23 23 22 22 32 35 34 34 34 35 34 34 34 35 35 35 35 36 36 36 34 35 35 36 36 36 36 35 34 36 36 36 34 37 37 36 36 36 35 36 35 36 36
22 27 27 22 22 27 34 29 34 34 34 35 35 35 35 35 34 35 36 37 36 37 37 36 34 37 36 36 35 35 36 35 35 34 34 37 36 37 35 36 35 35 35 35 35
24 32 27 24 25 33 35 35 34 35 34 35 35 35 36 36 36 36 36 37 37 37 37 37 36 36 36 36 37 35 36 36 37 36 35 36 37 37 36 36 35 34 34 35 35
28 33 27 26 32 33 35 34 25 35 35 34 34 35 35 36 35 36 36 37 37 37 36 37 37 36 37 38 37 37 37 37 36 35 34 35 36 35 36 36 35 34 33 33 34
29 30 28 28 33 34 33 33 33 34 35 35 35 35 35 35 34 36 36 36 35 36 36 37 36 35 36 38 37 36 38 38 38 36 35 34 36 34 35 34 34 33 32 32 32
28 31 31 31 30 31 31 33 33 34 33 34 34 34 34 35 36 35 35 36 35 35 28 34 37 37 36 37 39 37 37 37 38 37 36 37 37 35 35 35 34 33 32 31 31
25 24 22 29 30 28 30 31 32 33 33 33 34 34 33 33 35 35 36 36 35 28 32 35 36 37 38 38 38 38 38 38 36 37 36 37 38 36 36 35 35 34 33 32 31
23 21 23 26 27 28 24 31 30 29 30 33 32 33 33 33 33 33 34 35 36 35 35 36 35 36 35 38 37 37 38 38 37 37 37 37 37 39 38 36 35 34 33 32 32
15 17 19 22 27 28 27 25 26 27 30 31 29 29 31 32 31 32 34 35 35 36 36 36 36 35 35 37 37 35 37 38 38 39 38 37 37 37 36 35 35 34 33 33 33
Height
788 786 784 782 781 781 782 782 783 783 783 784 784 784 783 784 784 784 781 779 779 779 781 784 785 784 783 779 776 774 780 784 784 785 781 771 779 780 781 786 785 789 788 789 800
787 785 783 781 779 780 781 781 781 781 782 783 783 783 783 783 783 778 777 776 777 778 781 781 780 781 779 776 778 773 779 780 775 772 774 772 778 780 784 786 790 791 792 793 801
787 784 782 780 778 778 780 780 780 780 781 782 781 782 783 782 779 768 771 775 776 778 779 779 779 780 776 771 772 772 791 776 774 768 765 771 783 775 781 789 782 789 791 797 802
786 783 781 779 778 777 778 779 779 780 780 781 781 782 782 783 780 771 772 774 777 780 780 779 778 780 778 778 767 783 778 773 772 768 767 777 777 782 782 783 781 783 789 795 800
786 782 780 778 777 777 777 777 778 779 780 780 781 782 782 776 770 771 771 776 779 780 778 777 777 774 775 772 772 776 777 774 771 769 769 772 779 783 788 784 781 784 791 795 799
785 782 779 777 776 776 777 777 777 778 779 781 781 782 781 775 776 775 777 778 778 779 778 778 774 770 776 775 778 776 779 776 772 773 773 777 782 780 789 784 785 788 792 795 798
785 782 779 777 776 776 776 776 778 780 781 781 783 782 778 776 777 778 778 778 778 778 777 779 775 771 772 776 773 782 791 778 777 774 779 773 786 791 787 785 789 789 791 795 799
785 782 779 778 777 777 778 778 779 781 781 782 783 784 772 778 778 779 778 778 779 778 779 779 776 771 770 773 778 787 789 800 777 777 777 783 792 790 786 787 789 791 794 798 800
785 782 780 778 778 778 778 779 781 781 782 783 785 782 775 778 778 778 777 775 777 778 778 778 777 772 775 778 791 783 788 791 787 776 777 781 788 786 785 786 789 792 794 798 801
786 782 780 779 779 779 780 780 782 783 783 784 785 783 777 773 775 778 779 777 775 774 773 773 771 772 775 778 800 792 781 782 785 780 779 781 784 784 785 785 787 791 791 795 796
786 782 781 780 780 781 782 784 785 783 781 769 769 773 772 775 777 778 778 777 774 774 777 769 776 777 771 768 769 775 779 782 778 774 780 780 780 784 784 785 786 788 789 790 793
786 782 780 779 780 781 782 778 774 776 772 772 773 773 773 772 776 775 778 778 777 780 771 777 773 764 763 767 772 774 780 782 779 776 782 780 780 777 781 782 783 785 785 786 787
784 781 778 778 779 781 780 777 777 776 769 772 769 767 771 773 768 772 775 772 777 776 770 777 767 759 764 764 770 765 776 775 781 776 775 781 784 780 776 777 778 779 780 781 783
781 777 775 776 782 778 776 775 776 776 767 778 771 766 769 766 772 767 772 771 774 778 770 767 757 766 762 764 762 770 765 770 779 782 781 770 786 780 773 780 778 776 777 777 779
777 772 770 772 776 775 775 775 774 774 794 769 769 765 762 767 763 774 771 772 781 771 772 773 764 767 769 771 763 776 763 766 771 774 780 776 779 773 764 775 773 770 769 770 772
773 768 767 772 774 773 772 773 773 780 800 772 765 769 771 763 761 770 771 769 762 771 772 770 749 759 758 760 761 764 766 769 770 767 777 771 772 767 770 759 758 759 760 763 766
770 767 766 770 769 770 772 771 772 778 758 771 768 764 764 768 766 766 776 780 780 789 778 758 755 749 755 765 763 766 767 776 780 779 783 767 777 753 741 740 742 750 754 757 759
769 767 768 769 769 770 771 762 782 768 763 754 759 761 770 760 764 764 769 775 764 766 772 777 783 756 748 758 764 764 767 784 807 795 779 774 776 761 734 733 739 735 743 749 755
769 770 772 771 769 770 764 768 772 764 757 759 762 768 769 763 764 765 766 764 756 758 781 773 775 751 751 749 755 767 776 757 770 765 782 759 749 742 738 741 743 741 743 745 747
771 768 769 768 769 769 761 783 760 753 752 754 766 757 770 766 772 767 761 747 754 747 745 756 781 748 750 751 754 761 752 776 769 797 795 762 764 759 752 747 744 745 744 742 745
769 761 771 770 770 760 764 760 757 745 751 756 756 759 756 760 758 761 758 746 741 742 743 747 760 761 755 758 755 762 762 760 758 768 789 778 765 740 741 740 743 743 742 740 743
767 763 770 770 766 760 759 756 768 749 746 751 751 751 753 751 758 758 758 748 737 737 757 745 751 766 756 733 740 747 752 751 769 780 775 774 766 738 736 736 738 744 745 745 745
771 768 769 768 769 761 757 758 756 753 748 751 753 749 746 753 765 750 747 739 740 743 747 740 761 772 762 743 742 753 741 743 743 758 771 785 766 740 737 742 741 747 751 751 752
776 771 766 766 767 768 769 761 763 748 753 750 750 747 751 754 745 752 749 739 740 740 750 743 743 750 765 750 731 747 744 743 745 762 760 753 750 747 744 743 743 747 752 753 755
788 796 803 782 774 780 773 770 768 764 751 749 752 753 757 761 752 752 742 739 736 748 747 743 751 737 734 728 730 736 739 738 751 743 757 747 742 741 737 738 738 742 748 753 756
803 811 803 791 783 782 784 769 776 774 771 755 761 756 756 761 755 757 747 742 739 739 741 732 748 739 748 730 733 742 732 731 735 736 739 739 740 714 720 727 737 742 747 752 753
826 823 818 799 787 785 784 795 786 784 766 761 768 771 763 756 756 746 738 736 732 734 733 733 738 745 752 728 738 755 735 729 726 720 727 741 728 719 727 731 736 741 745 749 749
Wind_Speed
12 10 8 7 7 6 5 4 4 5 5 5 5 5 5 5 5 4 8 2 6 9 13 12 7 5 4 2 2 2 4 4 3 2 4 9 6 4 1 9 5 7 1 11 23
13 11 8 7 7 5 4 5 5 5 5 5 5 5 4 4 6 12 7 7 9 12 13 13 8 6 3 2 2 4 4 3 5 3 2 5 3 5 5 9 5 7 5 20 23
13 11 8 7 6 5 3 4 6 6 5 5 6 5 4 4 7 4 6 9 14 12 8 5 5 5 6 4 4 3 3 4 2 5 6 6 6 4 4 7 5 9 13 19 20
16 10 8 6 6 5 3 4 5 7 6 5 5 4 4 3 1 4 7 12 17 8 8 5 6 4 5 4 3 4 5 2 4 2 4 9 8 4 1 6 4 5 16 19 18
16 13 9 7 5 4 3 3 5 6 5 5 4 2 2 6 5 6 13 14 14 8 7 6 7 7 8 2 3 2 5 2 2 4 6 7 3 5 5 3 5 13 17 17 16
17 14 10 7 4 3 3 4 5 6 6 5 2 0 5 4 3 6 10 13 7 5 1 3 5 1 1 3 5 2 2 2 4 7 6 4 5 3 5 6 11 15 17 16 15
19 15 11 6 4 1 2 2 4 4 4 3 1 1 7 6 3 7 9 6 7 1 1 0 3 6 1 5 3 6 4 2 4 5 3 5 6 7 7 9 13 16 15 14 13
21 14 11 6 3 2 2 2 3 4 3 2 2 2 2 2 7 8 7 6 6 2 1 2 2 1 3 5 4 4 3 5 6 5 3 6 7 8 8 11 15 15 13 12 12
22 15 9 5 3 4 5 5 5 6 3 3 1 5 5 5 11 9 6 5 6 3 3 3 4 2 6 7 5 7 2 7 4 5 2 8 5 10 10 12 14 14 14 13 11
22 15 9 5 4 6 8 8 8 6 2 1 3 5 4 4 10 8 5 6 2 3 6 6 4 8 5 8 5 2 1 3 4 6 6 4 4 11 11 12 14 14 13 12 13
23 16 6 2 3 7 9 2 5 5 6 4 4 3 5 6 11 10 7 6 5 6 8 2 10 2 10 7 5 6 4 4 3 3 5 4 5 10 12 12 13 14 13 13 12
23 15 5 2 5 8 2 4 5 4 2 3 3 2 3 5 6 9 8 8 7 9 3 7 5 8 5 5 6 7 6 3 2 4 6 5 7 11 13 13 13 14 14 15 15
25 17 9 6 5 5 6 4 0 4 5 6 4 6 7 9 6 14 13 6 8 10 9 8 11 8 7 7 5 5 7 3 6 4 6 4 8 10 14 12 13 15 14 15 16
25 21 10 7 3 5 4 2 4 4 6 7 7 6 8 8 7 7 15 5 6 8 9 8 2 6 9 6 11 5 4 3 5 7 1 8 3 12 16 16 16 17 16 17 16
26 22 6 21 1 4 3 1 5 5 1 4 7 4 5 11 13 9 15 7 8 10 7 10 6 11 13 8 7 4 6 5 6 7 5 8 5 8 15 16 19 19 18 18 18
25 15 1 16 4 3 3 2 4 6 5 6 6 9 12 11 7 7 11 10 8 12 10 23 14 8 8 4 3 3 4 6 5 6 4 4 6 10 11 19 19 20 20 18 18
23 5 8 9 2 4 3 5 6 5 3 6 6 10 14 10 8 10 14 15 11 10 13 14 9 3 8 6 4 6 7 3 6 5 6 3 5 6 8 5 16 20 20 19 18
15 4 4 3 3 0 6 7 3 4 5 4 3 7 11 12 10 8 10 13 14 13 11 8 9 8 8 7 6 3 6 5 4 5 5 4 2 5 5 6 5 12 19 19 19
4 3 2 1 6 4 6 5 4 5 3 1 7 9 7 11 5 10 11 13 13 14 14 6 10 3 5 2 6 6 5 5 7 4 4 3 5 8 7 7 7 10 13 17 20
0 4 3 3 5 7 5 3 0 2 3 3 3 3 9 12 10 8 9 8 17 14 16 7 10 9 2 5 6 10 4 5 4 4 5 4 3 7 8 8 7 7 10 17 17
2 4 3 2 3 5 6 1 2 1 3 3 2 3 6 6 12 10 5 6 6 14 16 15 9 4 4 10 6 6 6 4 4 4 5 4 7 5 4 5 6 6 4 9 15
4 4 2 3 5 2 6 2 2 4 3 3 5 7 5 5 8 7 10 10 0 9 13 19 9 11 16 8 3 7 10 9 7 3 2 6 2 3 3 4 4 8 7 8 11
3 3 2 4 6 7 3 6 4 8 4 2 3 3 3 6 5 7 4 1 5 10 7 8 12 13 13 14 9 10 11 8 6 3 8 7 1 2 6 6 4 10 10 10 12
4 2 2 1 3 8 5 8 8 2 8 7 7 5 6 9 8 6 7 4 7 9 6 5 15 15 12 14 6 13 10 8 11 8 11 10 9 8 9 8 8 11 12 13 12
6 5 4 3 3 8 6 5 8 7 2 4 5 9 4 6 7 11 9 9 8 6 6 10 16 16 18 17 9 9 9 6 11 12 9 12 9 4 10 11 10 12 15 14 13
5 5 5 4 6 8 2 1 8 9 8 2 7 8 10 7 10 11 9 11 12 8 9 12 9 6 12 18 12 17 16 12 11 11 10 15 18 10 9 12 12 14 16 16 15
9 4 4 2 6 5 3 8 9 13 7 6 8 14 9 8 12 16 13 15 18 10 10 9 9 7 13 12 11 14 16 15 15 13 12 14 7 6 12 16 16 15 16 16 16
Wind_Direction
350 338 320 302 290 277 270 239 234 232 228 231 233 235 246 267 285 249 244 209 188 180 154 165 189 212 234 265 255 280 236 139 128 139 103 145 167 116 139 147 181 165 189 140 155
356 344 324 305 287 276 276 239 228 239 245 249 253 259 267 298 261 250 232 194 167 161 170 180 196 196 237 238 261 249 234 76 67 289 230 155 211 169 174 165 163 159 162 146 158
357 347 329 308 292 272 266 253 227 228 239 252 272 292 321 319 258 80 215 179 167 151 184 191 201 223 265 212 196 158 139 143 44 316 234 159 171 200 222 210 183 176 153 155 163
359 350 334 314 295 282 265 241 226 222 223 239 266 301 332 260 13 81 142 166 165 165 172 175 207 244 254 232 164 143 157 178 343 27 130 158 162 129 284 2 294 186 164 164 168
0 353 342 325 308 293 272 220 209 213 212 231 257 319 303 221 29 5 161 158 165 185 207 228 250 261 260 137 179 229 152 82 105 124 119 139 121 110 82 36 150 152 161 167 174
4 353 343 335 321 304 264 217 202 198 206 221 226 34 264 218 23 125 143 152 171 197 167 251 311 267 109 217 259 90 172 159 152 129 145 157 135 217 89 109 129 149 161 167 173
2 355 349 342 330 275 241 191 183 186 198 210 139 27 255 53 138 148 148 165 162 125 46 264 245 251 179 134 90 148 173 239 163 163 134 168 134 90 115 129 139 151 159 159 171
3 1 356 360 4 44 95 130 139 147 175 178 104 257 44 345 169 173 166 158 163 164 120 163 330 198 279 142 144 176 232 241 155 201 152 239 92 130 143 149 152 152 162 174 182
6 3 10 16 67 96 113 118 117 125 150 123 217 257 121 104 175 167 194 161 145 157 135 158 270 288 183 215 170 209 230 206 166 214 246 236 104 141 160 169 162 167 174 182 183
10 7 17 39 92 118 119 123 120 116 147 194 252 229 176 162 164 184 184 185 225 248 210 227 238 230 192 253 351 330 300 179 230 159 221 205 111 152 168 180 174 177 184 187 195
10 13 16 63 139 139 115 142 194 170 215 336 71 57 137 119 153 185 177 203 215 247 258 146 268 10 13 337 335 291 277 319 84 147 244 215 169 174 174 184 183 187 190 195 197
2 8 347 225 189 175 175 266 27 5 183 229 226 181 154 167 163 182 188 215 224 250 220 224 256 16 332 324 291 243 248 214 143 177 228 184 212 175 186 192 193 196 195 201 193
355 353 341 227 200 212 237 252 289 313 249 148 179 196 173 202 208 177 199 217 251 259 255 280 331 333 295 316 299 226 258 237 308 162 205 209 215 188 189 200 196 205 208 202 205
349 338 332 181 173 195 228 220 219 275 223 124 180 161 170 227 199 128 204 233 227 290 310 285 33 295 311 16 337 13 344 223 199 229 204 219 121 193 185 199 205 205 206 206 203
345 333 305 172 150 207 124 303 257 204 270 134 136 114 163 214 124 186 196 213 287 276 277 284 315 333 315 12 327 358 285 223 212 239 293 172 247 118 192 200 205 207 202 205 199
344 338 146 180 212 222 180 162 207 226 80 132 134 178 181 206 170 140 173 219 268 271 239 243 272 289 343 3 5 156 156 171 202 256 212 93 289 161 181 218 202 203 204 204 198
347 7 152 161 110 174 199 210 240 26 160 133 151 183 197 180 170 184 190 195 231 225 240 251 257 316 269 246 176 242 256 228 201 180 52 74 259 16 164 174 203 201 202 202 202
354 80 132 178 181 163 205 245 9 56 42 102 178 183 196 186 208 192 193 220 221 262 286 271 237 211 161 262 333 239 326 305 313 19 1 120 279 86 153 155 174 205 198 200 200
26 100 160 227 225 224 246 252 31 30 15 38 164 181 173 188 248 210 219 227 221 211 246 235 238 143 231 221 271 108 229 10 291 187 229 76 98 163 162 172 183 199 194 206 199
192 194 64 326 182 239 251 358 2 359 330 219 273 253 175 188 206 211 224 239 231 225 232 255 271 244 102 197 219 264 352 244 179 323 326 77 115 50 182 189 186 189 209 202 197
216 206 70 15 237 235 257 55 260 1 305 287 330 199 249 176 215 204 244 233 233 203 226 246 238 183 186 217 255 171 221 211 291 287 318 307 87 44 140 146 174 151 165 183 178
300 208 8 323 235 252 248 342 12 270 178 285 293 288 256 204 223 235 243 231 23 199 215 230 272 241 242 190 172 288 291 292 286 103 263 297 9 103 140 137 123 122 134 139 162
6 10 48 294 251 217 207 259 278 286 253 225 275 264 311 251 253 228 255 77 221 223 240 195 221 258 232 222 205 242 247 247 296 289 267 281 351 105 158 156 133 136 135 132 133
307 223 114 195 347 307 313 258 266 195 277 285 285 248 254 252 236 279 253 179 177 230 46 243 248 244 261 240 255 197 222 232 250 255 271 260 283 155 185 179 156 148 150 139 140
3 50 7 7 86 327 307 314 292 278 246 263 231 252 278 260 264 254 276 251 196 144 222 232 248 247 251 265 200 253 277 248 241 257 264 283 291 108 188 187 170 159 158 151 152
18 353 340 305 306 298 184 244 307 357 313 260 269 21 301 280 296 303 320 281 269 177 218 225 260 288 262 259 238 256 259 268 242 263 262 270 276 300 179 171 164 163 165 168 163
14 6 291 45 330 302 46 347 327 329 274 301 3 322 295 346 325 309 299 285 281 255 217 219 244 231 264 213 236 242 243 240 249 243 255 264 20 121 165 182 176 167 170 171 164